Dewpoint
15 13 16 19 19 17 19 22 21 19 16 15 14 11 9 8 8 7 6 1 8 8 9 10 8 4 6 6 5 2 1 5 7 13 13 10 14 16 12 20 51 53 55 62 65 65 66 66 67 67 67 68 69 69 69 69 68 68 67 67 67 68 68 67 66 66 65 65 66 66 66 67 68 67 67 67 66 65 64 65 66 65 68 67 69 68
14 14 14 16 18 18 16 17 18 17 16 16 14 10 9 8 5 6 4 3 1 8 8 11 7 5 6 8 6 6 2 2 6 10 15 11 9 19 17 14 48 51 57 63 64 66 66 66 67 68 67 68 68 68 68 68 69 68 67 67 67 67 68 67 67 66 66 66 66 66 66 67 66 66 66 65 65 66 66 66 67 66 68 68 69 70
15 13 13 14 18 19 19 13 13 17 17 16 15 10 10 10 8 4 2 3 3 2 6 7 6 4 6 8 8 8 0 9 11 10 13 15 13 14 12 13 44 50 59 62 63 65 65 66 67 67 68 68 68 68 68 68 69 67 66 67 67 67 67 68 68 67 67 67 68 67 67 66 66 67 67 66 65 67 68 68 68 68 68 68 68 70
13 12 12 13 16 18 19 18 14 16 17 16 14 13 8 7 8 5 2 3 3 2 6 8 6 6 6 9 11 9 2 7 8 8 9 12 17 16 16 15 41 48 62 62 62 63 63 65 65 66 67 67 68 68 68 68 68 67 66 67 67 67 68 68 68 68 68 68 69 69 68 68 67 66 67 68 68 68 68 68 67 74 71 71 69 68
7 12 12 11 14 17 17 17 16 13 15 15 13 11 11 9 7 7 2 3 3 1 6 7 8 7 5 5 8 10 6 2 5 8 10 16 22 27 27 25 36 50 60 62 62 62 62 63 64 65 66 68 67 68 67 68 67 67 67 67 67 67 67 67 68 68 68 68 68 68 68 68 68 68 67 67 66 66 66 68 71 70 70 69 68 67
2 7 11 10 12 16 17 17 15 13 12 13 14 13 10 8 8 8 5 3 6 4 6 6 6 7 9 5 4 7 6 3 2 8 10 14 13 15 22 29 37 54 58 61 63 63 63 63 64 64 66 67 67 67 68 69 68 68 67 67 67 67 67 67 68 68 69 67 67 67 67 65 66 65 66 65 65 65 65 68 71 70 68 68 67 68
4 3 5 10 10 13 16 16 17 15 13 15 14 14 12 11 8 6 5 2 5 4 4 6 5 8 9 6 6 7 5 4 4 9 11 13 13 11 14 19 33 58 58 59 64 64 63 64 64 64 65 67 66 67 68 69 68 69 68 67 67 66 67 67 68 68 68 68 67 67 66 65 65 65 65 68 68 67 67 70 70 69 69 68 68 69
6 3 3 7 10 11 15 16 17 16 14 11 14 12 12 10 8 8 6 3 6 5 5 6 4 4 5 6 6 3 7 5 5 4 13 10 12 10 17 19 32 55 54 54 63 64 64 64 64 63 64 65 66 67 68 68 69 68 68 67 67 67 67 67 68 68 68 67 67 67 66 66 65 65 66 67 67 68 69 69 70 70 70 67 67 68
8 4 3 5 11 10 13 16 17 16 14 12 11 10 9 10 10 7 6 4 4 5 5 4 3 5 4 9 6 3 3 5 5 5 8 10 11 15 22 24 31 45 55 54 57 62 65 65 64 64 64 65 66 68 68 68 69 68 68 67 67 67 67 67 67 68 67 67 67 67 67 66 66 66 67 67 67 67 69 69 69 69 68 68 67 67
7 7 5 5 9 11 12 15 16 17 15 14 12 10 9 11 11 10 7 4 5 10 10 3 1 3 1 6 4 6 3 6 7 5 3 6 10 15 19 26 33 42 52 54 55 57 64 65 66 66 65 65 67 68 68 69 68 68 68 67 66 67 67 66 67 67 67 67 67 67 67 66 65 66 66 66 66 67 70 68 68 69 68 69 68 67
11 12 11 7 9 13 13 15 17 17 16 14 11 9 8 9 10 10 10 8 9 10 7 3 1 1 1 2 6 8 7 8 8 10 8 5 7 14 23 25 35 40 45 53 54 54 60 64 66 66 65 65 67 69 68 68 68 68 68 67 67 68 67 67 67 67 67 67 67 66 66 66 65 65 65 65 66 66 68 68 68 68 67 67 67 67
9 11 7 8 11 13 14 14 16 17 17 15 11 10 8 11 9 12 12 9 11 7 3 4 2 1 3 2 0 12 10 7 11 11 12 12 5 11 23 21 31 36 41 49 51 52 57 61 63 64 64 65 67 68 68 68 68 68 68 67 67 67 67 66 67 67 67 67 67 66 66 65 65 65 64 66 66 65 67 69 68 68 66 65 66 66
7 11 12 8 15 12 14 14 15 16 16 15 12 11 11 10 13 12 10 12 8 6 5 3 3 1 1 9 2 2 8 8 11 7 10 10 7 18 17 24 31 37 40 49 50 53 57 62 63 62 63 64 68 67 67 68 68 68 67 67 67 66 66 66 67 67 67 66 66 65 65 65 66 65 67 66 66 66 66 67 66 66 64 65 65 66
8 11 14 18 9 14 13 14 14 14 16 15 13 12 11 11 11 11 8 12 8 6 4 4 4 1 4 3 4 3 11 10 13 15 12 11 17 21 18 27 33 41 44 48 49 51 58 61 63 63 63 64 67 67 67 68 68 67 67 67 67 66 65 65 67 67 66 66 66 66 66 65 65 66 67 66 65 67 66 66 66 66 64 64 65 65
8 11 13 16 9 11 14 17 18 15 16 14 13 12 13 12 10 11 7 9 9 7 4 3 2 7 5 8 4 8 6 14 11 8 15 19 19 26 21 27 31 37 41 44 47 51 62 62 64 64 64 65 67 67 67 68 68 67 67 67 66 65 65 66 67 66 66 66 66 66 65 65 65 66 66 66 67 68 66 67 67 66 65 65 65 65
5 14 14 15 11 13 16 19 20 16 16 15 14 12 11 12 13 9 11 9 11 10 10 8 13 8 12 12 12 9 12 10 10 9 19 19 15 21 22 25 28 35 38 42 48 51 59 65 65 64 64 64 66 67 67 68 67 67 68 67 67 66 66 67 66 66 66 65 66 66 66 66 66 66 67 68 69 69 68 66 66 65 65 65 65 66
10 14 12 13 11 13 18 20 19 17 16 16 13 12 11 12 9 20 21 18 23 16 10 12 10 6 9 10 9 9 13 11 11 10 13 16 14 23 24 25 30 34 34 39 47 50 62 64 65 65 64 64 64 66 67 68 67 68 67 67 66 66 67 66 66 66 66 66 66 67 67 67 67 67 68 68 68 67 66 66 66 65 65 65 65 66
12 12 12 8 9 12 16 19 19 18 15 14 12 12 11 11 12 17 11 16 15 10 14 10 6 6 6 11 8 8 16 12 9 9 10 24 21 23 26 30 31 33 36 40 47 51 58 63 64 65 65 64 65 65 67 67 68 68 67 66 66 66 66 67 66 66 66 66 66 67 67 67 67 68 68 68 67 66 66 65 65 65 65 65 65 66
14 11 10 7 8 12 17 17 16 17 16 13 11 13 9 16 13 15 20 15 14 14 9 9 4 7 7 12 8 10 15 17 15 14 16 17 19 21 26 30 32 36 41 43 48 51 59 64 65 65 65 65 65 65 66 67 68 68 67 66 66 66 66 67 66 66 66 67 67 67 66 67 67 67 67 67 67 66 65 65 65 64 65 65 66 66
24 18 12 7 8 10 12 14 16 16 16 15 14 11 11 14 18 16 17 15 14 12 14 9 7 13 4 10 12 12 17 20 15 16 16 17 21 26 25 29 33 38 45 43 47 54 64 65 65 65 65 64 64 65 66 67 67 67 67 66 66 66 66 67 66 66 66 67 66 66 66 66 66 65 65 67 66 65 65 65 65 65 65 65 66 66
24 24 20 9 9 10 12 13 16 16 16 15 15 14 11 18 13 14 20 11 11 13 12 12 10 11 14 11 12 11 17 21 20 24 30 27 27 31 32 36 39 43 47 46 47 61 64 64 64 64 64 64 64 65 66 66 66 65 66 66 66 66 66 66 66 66 66 67 66 66 65 66 67 65 63 66 67 66 65 65 65 65 66 65 65 66
23 22 22 16 8 11 11 13 15 16 15 14 16 14 10 11 14 12 14 9 10 11 15 12 15 17 15 7 12 13 20 20 17 19 26 26 26 31 37 39 41 45 49 48 52 64 64 64 64 64 64 64 63 64 66 65 65 65 65 66 66 66 66 66 66 66 66 66 66 67 66 66 66 65 64 66 67 66 65 65 66 66 66 65 65 66
23 26 25 24 14 11 10 14 18 18 17 16 15 13 12 15 14 11 14 14 10 8 9 12 16 17 19 15 22 25 25 15 19 18 24 25 29 34 39 41 46 50 50 51 56 64 64 63 63 63 63 63 63 63 64 64 64 64 65 66 66 65 65 65 65 65 65 65 65 66 66 66 65 65 66 66 65 65 65 65 65 65 65 65 66 66
28 24 24 22 19 11 11 13 16 17 16 14 14 15 14 13 12 13 16 22 13 14 10 11 16 19 22 18 29 31 25 22 24 24 22 23 34 38 40 44 46 50 51 55 60 62 62 62 62 61 61 61 62 63 64 64 63 64 65 65 65 65 65 64 64 65 65 65 65 65 65 64 65 65 65 65 65 64 65 66 65 65 65 64 65 65
22 24 23 21 20 11 10 12 13 16 13 15 16 16 14 14 13 16 13 23 15 12 9 10 10 13 26 27 28 25 22 20 18 19 26 29 39 37 37 41 43 49 54 57 60 61 61 60 59 59 59 60 61 62 63 63 63 63 64 64 64 64 65 64 64 64 64 64 64 64 63 63 64 64 65 65 65 65 65 65 65 64 64 64 65 65
26 32 26 21 16 10 10 10 13 15 14 16 15 14 14 12 15 17 17 20 17 20 7 12 10 19 25 30 26 28 27 30 30 24 33 35 39 40 45 45 46 53 54 57 60 61 61 60 60 59 60 59 59 61 62 62 62 63 64 64 64 64 64 64 64 64 64 64 64 63 63 63 64 64 65 65 64 64 64 65 65 65 64 64 64 64
31 35 30 27 18 13 13 12 11 13 13 12 13 14 15 16 14 20 23 20 15 16 18 16 19 21 21 26 28 30 37 34 39 42 42 45 51 53 54 55 56 56 55 57 60 60 60 60 60 59 59 58 59 61 61 62 62 62 63 64 63 63 63 63 64 63 64 64 63 62 63 63 64 64 65 65 64 65 65 64 64 63 64 64 64 63
27 29 30 28 27 17 13 10 9 12 13 12 13 15 15 15 16 22 23 21 22 18 14 30 29 24 20 19 26 30 32 33 40 46 48 49 52 54 55 56 55 57 57 58 59 58 58 58 59 59 59 59 60 61 61 61 61 62 63 62 62 63 63 64 63 63 63 63 62 62 62 63 64 64 64 64 64 65 64 63 63 64 64 63 63 63
28 26 27 28 27 26 15 13 11 12 12 14 17 18 17 15 21 25 25 20 31 26 30 36 39 40 41 46 50 49 43 45 37 43 46 53 51 53 54 54 55 56 56 56 57 57 56 57 58 59 59 60 61 62 62 61 61 63 62 62 62 63 63 63 63 62 62 62 62 62 62 64 64 64 64 63 64 64 64 63 63 64 63 63 63 63
31 29 31 32 26 20 19 14 11 13 14 13 17 17 19 19 21 22 24 32 34 36 38 37 39 40 43 47 50 51 52 51 51 56 50 51 53 53 53 54 55 55 55 54 54 55 56 57 59 59 60 61 62 62 62 62 62 63 62 62 62 62 63 63 63 62 62 62 62 62 62 63 64 64 63 63 62 63 63 63 64 64 63 63 63 63
36 29 34 34 25 24 21 22 17 15 15 19 19 16 15 18 18 19 27 28 29 27 35 36 37 38 42 48 51 51 52 51 53 53 49 51 53 54 53 54 54 53 53 54 55 55 56 57 59 59 60 61 62 62 62 63 63 64 63 62 62 62 63 63 63 63 62 62 62 62 62 63 63 64 63 62 62 63 63 63 63 64 63 63 62 62
36 31 33 33 26 27 26 25 19 17 18 20 21 20 19 21 21 26 32 28 30 27 31 33 35 38 45 48 49 50 50 49 52 54 54 53 51 52 51 53 53 52 53 52 53 54 55 57 59 59 60 61 62 63 63 63 63 63 62 62 62 63 63 63 63 63 62 62 62 62 62 63 63 63 63 62 62 62 62 62 63 63 63 62 62 62
33 35 30 29 27 27 25 24 21 21 20 16 20 21 22 22 20 27 31 34 35 36 32 33 37 40 46 48 48 50 49 50 50 53 55 54 54 52 52 52 51 51 52 53 54 55 56 58 60 61 62 62 63 63 64 63 63 62 62 63 63 63 62 62 63 62 62 62 62 62 63 63 63 63 62 62 62 62 62 62 62 62 62 61 62 62
34 37 33 37 28 26 26 23 21 16 16 16 24 27 23 24 23 27 31 35 36 37 34 38 40 41 46 48 49 51 52 52 54 55 57 56 57 57 55 53 52 53 54 54 56 56 57 59 60 62 62 63 65 64 64 63 63 63 63 63 63 63 62 62 62 62 62 62 61 62 62 62 62 62 62 62 62 62 61 61 61 61 61 61 61 61
32 33 33 37 31 28 30 30 17 18 16 31 37 32 21 23 24 41 41 41 42 40 38 40 44 43 44 49 51 52 53 54 56 55 56 57 57 56 55 52 52 54 55 56 56 57 59 60 62 62 63 61 62 61 60 63 63 63 62 63 63 62 62 61 61 61 61 61 61 61 61 61 61 61 61 61 61 61 60 60 60 60 60 60 60 60
31 31 33 33 32 31 29 26 16 16 36 32 38 37 34 27 44 41 41 44 45 43 41 42 45 45 46 50 52 53 53 55 56 55 55 57 59 57 53 53 55 57 56 56 58 59 61 61 63 62 60 60 60 61 61 61 62 63 64 63 62 62 62 61 60 60 61 61 61 60 60 60 60 60 61 60 60 60 59 59 60 59 59 59 59 58
34 34 33 31 35 29 26 17 24 38 36 37 35 42 34 39 36 37 36 42 46 45 45 44 45 46 47 50 51 51 54 54 54 54 56 57 58 59 60 59 59 59 59 60 61 61 63 64 62 61 60 61 61 61 61 62 63 63 63 62 62 61 61 60 60 60 61 61 60 60 60 60 59 59 60 60 60 59 59 59 59 59 58 58 58 57
34 35 39 35 31 31 19 30 31 30 28 32 41 42 42 44 44 42 41 41 46 46 45 45 45 47 49 51 51 52 53 49 50 52 55 56 58 58 59 60 61 61 60 60 61 63 64 63 61 61 60 61 61 61 61 62 62 62 63 62 62 60 60 59 60 60 59 59 60 60 60 60 59 60 60 60 59 59 59 59 59 58 58 58 57 56
35 38 40 35 32 31 29 27 28 26 30 40 41 43 43 42 45 43 38 37 46 46 47 47 46 49 50 51 51 52 51 47 50 52 54 56 57 58 57 59 60 61 62 62 62 62 63 62 61 61 61 61 61 62 62 61 62 62 62 61 61 60 59 59 59 60 59 59 59 60 60 60 60 60 60 59 59 59 59 59 59 58 58 57 56 56
37 36 34 33 31 30 28 28 28 31 33 40 43 42 41 45 46 38 27 32 47 48 49 50 49 50 50 51 51 50 50 43 50 53 55 56 57 57 58 59 59 60 61 63 63 63 64 62 61 61 60 60 61 62 63 63 63 62 62 61 61 62 61 61 61 60 61 61 60 60 60 61 60 60 60 59 59 59 59 59 58 58 58 57 55 54
34 34 34 30 30 30 31 32 33 34 39 44 43 44 40 45 42 28 24 40 47 49 50 50 51 50 51 52 51 50 52 53 54 56 56 56 56 58 58 59 58 60 60 61 61 58 63 61 60 60 60 61 62 63 63 62 61 61 61 61 61 61 62 61 60 61 61 60 60 60 60 61 60 60 60 59 60 59 59 59 58 58 57 56 55 54
33 35 33 33 31 30 32 30 31 34 40 44 44 45 45 39 28 24 43 48 49 49 49 50 50 51 52 52 53 53 54 56 56 56 56 56 56 57 59 59 58 59 60 58 57 58 59 59 60 60 61 61 62 62 61 61 60 61 61 61 61 62 62 61 61 60 60 60 60 60 60 61 60 60 60 58 58 58 58 58 58 57 57 56 54 54
34 33 30 31 33 35 33 31 27 28 38 46 46 42 46 36 40 47 48 48 50 49 50 50 51 53 54 52 54 55 56 56 55 55 57 58 57 56 58 58 59 58 57 58 58 58 58 58 57 57 58 60 62 61 61 62 60 60 60 61 61 62 61 61 61 60 60 59 59 59 60 61 60 60 59 58 58 57 57 57 57 57 57 56 55 54
42 33 31 31 36 31 30 30 32 37 46 47 45 41 47 47 50 51 48 46 48 49 50 50 50 52 55 56 55 56 55 55 55 56 56 56 56 57 57 57 57 58 58 58 58 58 59 59 59 59 59 60 61 61 62 61 59 60 60 61 62 61 60 61 61 60 59 59 60 60 60 59 59 59 59 58 58 57 57 57 57 56 56 56 55 55
42 41 38 32 41 36 34 37 44 47 48 49 47 47 48 48 47 47 47 47 47 47 49 49 49 51 53 55 55 55 55 55 54 54 54 54 55 55 55 56 57 57 57 57 56 57 58 58 58 59 59 60 61 61 61 62 61 60 60 62 62 60 60 60 60 61 61 59 59 58 58 59 59 59 58 58 57 56 57 57 56 55 56 55 54 54
44 44 46 45 42 45 46 47 49 48 46 46 45 45 44 44 45 46 46 46 47 49 48 48 48 48 50 54 53 54 54 54 53 53 53 54 54 54 55 55 56 58 57 57 58 58 57 58 58 58 58 58 59 60 60 61 61 60 61 62 62 63 64 63 61 60 60 58 58 58 57 57 57 57 57 57 56 56 56 56 56 55 55 54 54 53
43 44 44 39 41 38 36 45 45 44 42 42 41 42 43 43 43 46 47 48 48 49 49 48 47 47 49 48 54 52 52 52 52 52 52 53 53 53 54 54 54 55 55 54 56 55 56 55 56 56 57 57 58 58 59 59 60 60 60 60 60 61 61 60 59 58 58 57 57 57 57 56 56 56 56 56 56 56 56 56 56 54 54 53 54 54
39 46 41 39 38 37 39 44 45 45 42 42 41 41 41 41 42 43 47 49 49 51 49 49 48 51 51 48 51 53 51 52 52 52 52 52 52 52 53 53 53 54 55 55 55 54 53 54 54 54 55 56 57 57 58 58 58 59 59 59 60 59 59 58 58 57 56 56 56 56 56 55 49 52 55 55 55 55 55 54 54 54 53 53 53 52
45 44 38 41 39 40 42 43 44 41 42 40 41 41 41 41 42 42 42 44 47 49 49 51 52 53 53 52 51 49 49 51 52 52 53 53 52 52 52 53 53 53 54 53 54 54 53 53 53 53 54 55 56 57 56 57 58 58 59 59 59 59 58 57 55 56 56 55 55 55 54 54 53 53 52 48 45 43 45 50 52 52 50 51 53 53
42 39 39 40 35 34 37 42 45 38 36 38 40 40 41 41 41 41 42 41 43 45 48 50 51 52 53 53 53 52 49 49 51 51 52 52 53 53 53 53 53 53 53 53 53 53 54 54 54 54 54 54 55 55 55 56 56 57 57 57 57 57 56 56 56 55 55 54 53 52 52 52 51 50 48 47 46 45 42 37 37 41 49 47 43 43
42 42 43 36 37 37 44 45 47 40 39 39 39 40 41 40 40 41 41 40 41 44 46 48 48 49 50 53 54 54 52 51 50 51 51 52 54 54 54 54 53 53 53 53 53 53 53 53 54 53 53 53 54 53 54 55 55 55 55 56 56 57 55 55 55 53 53 52 51 50 51 50 49 49 48 48 48 46 44 43 41 37 37 38 40 40